Location: Casco Millpond
(44.5581°N, 87.6111°W)
Time: 21:04:13
(UTC+00:00)

Cosmos 540 Rocket - Pass Details

Date: 16 January 2026
Orbit: 736 x 747 km, 74.1° (Epoch: 10 February)

Event Time Altitude Azimuth Distance (km) Brightness Sun altitude
Exits shadow 12:47:25 -1° 334° (NNW) 3,240 6.3 -6.5°
Rises 12:47:35 0° 334° (NNW) 3,176 6.2 -6.5°
Reaches altitude 10° 12:49:59 10° 329° (NNW) 2,250 5.4 -6.1°
Maximum altitude 12:54:53 50° 255° (WSW) 933 3.7 -5.3°
Drops below altitude 10° 12:59:47 10° 181° (S) 2,238 6.3 -4.5°
Sets 13:02:10 0° 176° (S) 3,158 7.1 -4.1°
